Adolf Würth Airport EDTY

Flugplatz Daten

Name: Adolf Würth Airport

Ident: EDTY

Lat: 49,11833191

Long: 9,783888817

Platzhöhe: 1299 ft

IataCode:

City: Schwäbisch Hall

Homepage: http://www.edty.de

Metar

2022/08/15 18:20
EDTY 151820Z AUTO 23006KT 9999 // BKN100/// BKN160/// 18/14 Q1009

Taf

Gewünschte Webcam nicht vorhanden? Dann fügen Sie eine hinzu. Sie wird dann so schnell wie möglich freigeschaltet
Url: Title: